Live-Position
3D-Globus wird geladen...
Über Starlink 2143
Group: 3 satellites
Beschreibung wird geladen...
Nächste Überflüge
Passes for default location (London). Set your location on the main map for personalized predictions.
Höhenverlauf
Loading altitude history...
No altitude history available
Zweizeiliger Elementsatz
1 47733U 21017M 26123.52893294 .00001541 00000-0 61420-4 0 9999
2 47733 53.1604 321.7343 0002238 86.4576 273.6681 15.31702365286113
Epoch: 3. Mai 2026 •
Age: 4 hours
Aktueller Status
Höhe 490.3 km
Geschwindigkeit 7.62 km/s
Subsatellitenpunkt -52.01°S,
131.02°E
Startdatum 4. März 2021
Alter 5.1 years
Typ internet
Startgruppe
Falcon 9 •
Launch 17 •
29 satellites
Starlink 2068
47722
Starlink 2107 47723
Starlink 2131 47728
Starlink 2140 47730
Starlink 2141 47731
Starlink 2144 47734
Starlink 2147 47736
Starlink 2150 47739
Starlink 2156 47742
Starlink 2159 47745
Starlink 2160 47746
Starlink 2161 47747
Starlink 2162 47748
Starlink 2163 47749
Starlink 2164 47750
Starlink 2169 47752
Starlink 2170 47753
Starlink 2171 47754
Starlink 2178 47760
Starlink 2180 47762
...and 8 more
Technische Details
Klassifizierung Payload
Masse 260.00 kg
Trockenmasse 248.00 kg
Gesamtmasse 260.00 kg
Länge 0.20 m
Durchmesser 2.80 m
Spannweite 9.00 m
Form Box + pan
Hersteller SPXS
Bus-Typ Starlink
Phasenstatus In Orbit
Besitzer/Staat SPXS/US
Most Searched
Loading...